This demonstration page uses our WeatherBlox Daily Observations layout. Learn more.

Left ArrowRight Arrow

Hourly Observations for November 30, 2022

Temp ( °F °C ) Dew Point ( °F °C ) Humidity (%) Winds ( mph kmh ) Pressure ( in mb ) Visibility ( mi km ) Precip ( " mm )
12:05 am 00:05 Cloudy with Light Snow 28 -2.2 23 -5 81 81 NW 17 28 30.16 1021 7 11 0.01 0.13
12:27 am 00:27 Partly Cloudy 27 -2.8 21 -6.1 78 78 NW 20 31 30.18 1022 10 16 0.01 0.13
12:52 am 00:52 Mostly Clear 27 -2.8 20 -6.7 74 74 NW 14 22 30.14 1021 10 16 0.01 0.13
1:52 am 01:52 Clear 27 -2.8 19 -7.2 72 72 NNW 21 33 30.16 1021 10 16 0.00 0.00
2:13 am 02:13 Mostly Cloudy 27 -2.8 19 -7.2 72 72 NNW 16 26 30.25 1024 10 16 0.00 0.00
2:52 am 02:52 Mostly Clear 26 -3.3 17 -8.3 68 68 NW 13 20 30.21 1023 10 16 0.00 0.00
3:52 am 03:52 Clear 23 -5 15 -9.4 71 71 NNW 9 15 30.22 1024 10 16 0.00 0.00
4:52 am 04:52 Clear 24 -4.4 15 -9.4 68 68 WNW 7 11 30.26 1025 10 16 0.00 0.00
5:52 am 05:52 Clear 23 -5 15 -9.4 71 71 WNW 7 11 30.30 1026 10 16 0.00 0.00
6:52 am 06:52 Clear 22 -5.6 15 -9.4 74 74 WNW 7 11 30.34 1028 10 16 0.00 0.00
7:52 am 07:52 Sunny 24 -4.4 15 -9.4 68 68 WNW 6 9 30.37 1028 10 16 0.00 0.00
8:52 am 08:52 Sunny 26 -3.3 15 -9.4 63 63 NW 9 15 30.40 1029 10 16 0.00 0.00
9:52 am 09:52 Sunny 30 -1.1 15 -9.4 53 53 NW 8 13 30.42 1030 10 16 0.00 0.00
10:52 am 10:52 Sunny 33 0.6 13 -10.6 43 43 NW 7 11 30.44 1031 10 16 0.00 0.00
11:52 am 11:52 Sunny 36 2.2 14 -10 40 40 WNW 9 15 30.43 1030 10 16 0.00 0.00
12:52 pm 12:52 Sunny 37 2.8 14 -10 38 38 N 12 19 30.42 1030 10 16 0.00 0.00
1:52 pm 13:52 Sunny 38 3.3 13 -10.6 35 35 NNW 7 11 30.41 1030 10 16 0.00 0.00
2:52 pm 14:52 Sunny 39 3.9 13 -10.6 34 34 NW 9 15 30.42 1030 10 16 0.00 0.00
3:52 pm 15:52 Sunny 38 3.3 12 -11.1 34 34 WNW 5 7 30.43 1030 10 16 0.00 0.00
4:52 pm 16:52 Sunny 35 1.7 13 -10.6 39 39 WNW 3 6 30.43 1031 10 16 0.00 0.00
5:52 pm 17:52 Clear 33 0.6 13 -10.6 43 43 W 5 7 30.44 1031 10 16 0.00 0.00
6:52 pm 18:52 Clear 27 -2.8 15 -9.4 60 60 W 5 7 30.45 1031 10 16 0.00 0.00
7:52 pm 19:52 Clear 27 -2.8 16 -8.9 63 63 Calm 30.47 1032 10 16 0.00 0.00
8:52 pm 20:52 Clear 25 -3.9 16 -8.9 68 68 Calm 30.48 1032 10 16 0.00 0.00
9:52 pm 21:52 Clear 26 -3.3 16 -8.9 65 65 Calm 30.48 1032 10 16 0.00 0.00
10:52 pm 22:52 Clear 24 -4.4 16 -8.9 71 71 Calm 30.49 1032 10 16 0.00 0.00
11:52 pm 23:52 Clear 24 -4.4 17 -8.3 74 74 SSE 3 6 30.49 1032 10 16 0.00 0.00

Powered by AerisWeather